| time (UTC) | temp F | wind direction | speed MPH | gust MPH | rain 1hr in | rain 24hr in | rain mn in | humidity % | barometer mb |
| 20260902073322 | 47 | 313 | 0.0 | 0.0 | 0.00 | 0.01 | 0.00 | 84 | 1033.6 |
| 20260902071815 | 48 | 313 | 0.0 | 0.0 | 0.00 | 0.01 | 0.00 | 83 | 1033.6 |
| 20260902070331 | 48 | 314 | 0.0 | 0.0 | 0.00 | 0.01 | 0.00 | 83 | 1033.6 |
| 20260902064824 | 48 | 314 | 0.0 | 0.0 | 0.00 | 0.01 | 0.00 | 82 | 1033.6 |
| 20260902063339 | 48 | 314 | 0.0 | 0.0 | 0.00 | 0.01 | 0.00 | 82 | 1033.5 |
| 20260902061826 | 49 | 313 | 0.0 | 0.0 | 0.00 | 0.01 | 0.01 | 81 | 1033.3 |
| 20260902060348 | 49 | 313 | 0.0 | 0.0 | 0.00 | 0.01 | 0.01 | 81 | 1033.4 |
| 20260902054813 | 49 | 313 | 0.0 | 0.0 | 0.00 | 0.01 | 0.01 | 80 | 1033.4 |
| 20260902053335 | 50 | 314 | 0.0 | 0.0 | 0.00 | 0.01 | 0.01 | 80 | 1033.6 |
| 20260902051826 | 50 | 313 | 0.0 | 0.0 | 0.00 | 0.01 | 0.01 | 80 | 1033.5 |
| 20260902050320 | 50 | 313 | 0.0 | 0.0 | 0.00 | 0.01 | 0.01 | 80 | 1033.4 |
| 20260902044814 | 50 | 313 | 0.0 | 0.0 | 0.00 | 0.01 | 0.01 | 79 | 1033.5 |
| 20260902043330 | 50 | 313 | 0.0 | 0.0 | 0.00 | 0.01 | 0.01 | 78 | 1033.6 |
| 20260902041815 | 51 | 314 | 0.0 | 0.0 | 0.00 | 0.01 | 0.01 | 77 | 1033.5 |
| 20260902040316 | 51 | 314 | 0.0 | 0.0 | 0.00 | 0.01 | 0.01 | 75 | 1033.4 |
| 20260902034814 | 52 | 314 | 0.0 | 0.0 | 0.00 | 0.01 | 0.01 | 74 | 1033.4 |
| 20260902033328 | 53 | 313 | 0.0 | 0.0 | 0.00 | 0.01 | 0.01 | 73 | 1033.3 |
| 20260902031813 | 53 | 313 | 0.0 | 0.0 | 0.00 | 0.01 | 0.01 | 71 | 1033.1 |
| 20260902030328 | 54 | 313 | 0.0 | 0.0 | 0.00 | 0.01 | 0.01 | 68 | 1032.8 |
| 20260902024821 | 56 | 314 | 0.0 | 0.0 | 0.00 | 0.01 | 0.01 | 65 | 1032.5 |
| 20260902023317 | 57 | 313 | 0.0 | 0.0 | 0.00 | 0.01 | 0.01 | 60 | 1032.5 |
| 20260902021830 | 59 | 313 | 0.0 | 0.0 | 0.00 | 0.01 | 0.01 | 58 | 1032.4 |
| 20260902020324 | 62 | 313 | 0.0 | 0.0 | 0.00 | 0.01 | 0.01 | 54 | 1032.2 |
| 20260902014819 | 64 | 314 | 0.0 | 0.0 | 0.00 | 0.01 | 0.01 | 50 | 1032.2 |
| 20260902013313 | 66 | 314 | 0.0 | 0.0 | 0.00 | 0.01 | 0.01 | 45 | 1032.2 |
| 20260902011828 | 69 | 313 | 0.0 | 2.0 | 0.00 | 0.01 | 0.01 | 38 | 1032.4 |
| 20260902010314 | 72 | 313 | 0.0 | 3.0 | 0.00 | 0.01 | 0.01 | 32 | 1032.3 |
| 20260902004837 | 75 | 314 | 1.0 | 3.0 | 0.00 | 0.01 | 0.01 | 29 | 1032.2 |
| 20260902003351 | 75 | 313 | 1.0 | 4.0 | 0.00 | 0.01 | 0.01 | 30 | 1032.3 |
| 20260902001822 | 74 | 359 | 0.0 | 2.0 | 0.00 | 0.01 | 0.01 | 30 | 1032.4 |
| 20260902000338 | 71 | 359 | 0.0 | 2.0 | 0.00 | 0.01 | 0.01 | 34 | 1032.4 |
| 20260901234831 | 68 | 359 | 1.0 | 5.0 | 0.00 | 0.01 | 0.01 | 40 | 1032.5 |
| 20260901233326 | 67 | 266 | 0.0 | 3.0 | 0.00 | 0.01 | 0.01 | 47 | 1032.8 |
| 20260901231819 | 66 | 250 | 1.0 | 10.0 | 0.00 | 0.01 | 0.01 | 49 | 1033.0 |
| 20260901230333 | 66 | 207 | 3.0 | 8.0 | 0.00 | 0.01 | 0.01 | 50 | 1033.3 |
| 20260901224827 | 66 | 274 | 3.0 | 12.0 | 0.00 | 0.01 | 0.01 | 51 | 1033.2 |
| 20260901223315 | 68 | 256 | 1.0 | 9.0 | 0.00 | 0.01 | 0.01 | 44 | 1033.0 |
| 20260901221855 | 69 | 253 | 2.0 | 9.0 | 0.00 | 0.01 | 0.01 | 42 | 1032.9 |
| 20260901220349 | 69 | 268 | 2.0 | 8.0 | 0.00 | 0.01 | 0.01 | 43 | 1033.0 |
| 20260901214820 | 70 | 262 | 3.0 | 12.0 | 0.00 | 0.01 | 0.01 | 42 | 1033.0 |
| 20260901213316 | 71 | 264 | 3.0 | 9.0 | 0.00 | 0.01 | 0.01 | 39 | 1033.0 |
| 20260901211829 | 72 | 272 | 2.0 | 7.0 | 0.00 | 0.01 | 0.01 | 38 | 1033.1 |
| 20260901210323 | 72 | 291 | 3.0 | 10.0 | 0.00 | 0.01 | 0.01 | 38 | 1033.3 |
| 20260901204820 | 73 | 249 | 4.0 | 13.0 | 0.00 | 0.01 | 0.01 | 34 | 1033.6 |
| 20260901203335 | 72 | 262 | 3.0 | 10.0 | 0.00 | 0.01 | 0.01 | 42 | 1033.5 |
| 20260901201827 | 71 | 239 | 1.0 | 5.0 | 0.00 | 0.01 | 0.01 | 42 | 1033.8 |
| 20260901200321 | 70 | 266 | 3.0 | 10.0 | 0.00 | 0.01 | 0.01 | 43 | 1033.9 |
| 20260901194835 | 69 | 267 | 0.0 | 9.0 | 0.00 | 0.01 | 0.01 | 51 | 1034.1 |
| 20260901193329 | 68 | 264 | 3.0 | 8.0 | 0.00 | 0.01 | 0.01 | 53 | 1034.1 |
| 20260901191823 | 67 | 274 | 2.0 | 8.0 | 0.00 | 0.01 | 0.01 | 54 | 1034.2 |
| 20260901190336 | 68 | 181 | 3.0 | 8.0 | 0.00 | 0.01 | 0.01 | 53 | 1034.2 |
| 20260901184830 | 67 | 248 | 1.0 | 8.0 | 0.00 | 0.01 | 0.01 | 54 | 1034.3 |
| 20260901183327 | 67 | 258 | 1.0 | 11.0 | 0.00 | 0.01 | 0.01 | 56 | 1034.5 |
| 20260901181838 | 67 | 261 | 5.0 | 10.0 | 0.00 | 0.01 | 0.01 | 52 | 1034.5 |
| 20260901180324 | 67 | 258 | 3.0 | 10.0 | 0.00 | 0.01 | 0.01 | 52 | 1034.6 |
| 20260901174819 | 67 | 199 | 3.0 | 9.0 | 0.00 | 0.01 | 0.01 | 52 | 1034.7 |
| 20260901173313 | 67 | 256 | 2.0 | 12.0 | 0.00 | 0.01 | 0.01 | 51 | 1034.5 |
| 20260901171826 | 68 | 271 | 3.0 | 7.0 | 0.00 | 0.01 | 0.01 | 49 | 1034.6 |
| 20260901170321 | 68 | 253 | 1.0 | 9.0 | 0.00 | 0.01 | 0.01 | 51 | 1034.5 |
| 20260901164814 | 67 | 283 | 3.0 | 7.0 | 0.00 | 0.01 | 0.01 | 54 | 1034.3 |
| 20260901163329 | 66 | 262 | 3.0 | 10.0 | 0.00 | 0.01 | 0.01 | 53 | 1034.2 |
| 20260901161821 | 66 | 264 | 1.0 | 8.0 | 0.00 | 0.01 | 0.01 | 57 | 1033.8 |
| 20260901160315 | 65 | 266 | 1.0 | 6.0 | 0.00 | 0.01 | 0.01 | 55 | 1033.5 |
| 20260901154851 | 63 | 231 | 3.0 | 5.0 | 0.00 | 0.01 | 0.01 | 59 | 1033.6 |
| 20260901153324 | 62 | 291 | 0.0 | 3.0 | 0.00 | 0.01 | 0.01 | 62 | 1033.3 |
| 20260901151816 | 61 | 292 | 1.0 | 4.0 | 0.00 | 0.01 | 0.01 | 64 | 1033.4 |
| 20260901150331 | 59 | 19 | 0.0 | 4.0 | 0.00 | 0.01 | 0.01 | 67 | 1033.2 |
| 20260901144846 | 58 | 23 | 0.0 | 1.0 | 0.00 | 0.01 | 0.01 | 75 | 1033.3 |
| 20260901143320 | 56 | 24 | 0.0 | 3.0 | 0.00 | 0.01 | 0.01 | 83 | 1033.3 |
| 20260901141818 | 53 | 23 | 3.0 | 9.0 | 0.00 | 0.02 | 0.01 | 89 | 1033.4 |
| 20260901140334 | 51 | 41 | 2.0 | 5.0 | 0.00 | 0.02 | 0.01 | 91 | 1033.3 |
| 20260901134827 | 51 | 41 | 0.0 | 3.0 | 0.00 | 0.02 | 0.01 | 90 | 1033.3 |
| 20260901133322 | 51 | 41 | 0.0 | 2.0 | 0.00 | 0.02 | 0.01 | 90 | 1033.2 |
| 20260901131814 | 51 | 41 | 0.0 | 2.0 | 0.00 | 0.02 | 0.01 | 89 | 1033.1 |
| 20260901130329 | 51 | 41 | 0.0 | 2.0 | 0.00 | 0.02 | 0.01 | 89 | 1033.1 |
| 20260901124823 | 52 | 41 | 0.0 | 1.0 | 0.00 | 0.02 | 0.01 | 89 | 1033.0 |
| 20260901123317 | 52 | 41 | 0.0 | 2.0 | 0.00 | 0.02 | 0.01 | 89 | 1032.7 |
| 20260901121831 | 53 | 41 | 1.0 | 3.0 | 0.00 | 0.10 | 0.01 | 89 | 1032.6 |
| 20260901120318 | 53 | 41 | 0.0 | 3.0 | 0.00 | 0.10 | 0.01 | 89 | 1032.6 |
| 20260901114819 | 53 | 41 | 0.0 | 3.0 | 0.00 | 0.10 | 0.01 | 90 | 1032.7 |
| 20260901113334 | 53 | 41 | 0.0 | 3.0 | 0.00 | 0.10 | 0.01 | 90 | 1032.8 |
| 20260901111820 | 53 | 41 | 0.0 | 3.0 | 0.00 | 0.24 | 0.01 | 90 | 1032.7 |
| 20260901110315 | 53 | 41 | 0.0 | 1.0 | 0.00 | 0.24 | 0.01 | 90 | 1032.8 |
| 20260901104847 | 53 | 41 | 0.0 | 3.0 | 0.00 | 0.24 | 0.01 | 90 | 1032.6 |
| 20260901103321 | 53 | 41 | 1.0 | 4.0 | 0.00 | 0.24 | 0.01 | 90 | 1032.8 |
| 20260901101834 | 53 | 41 | 2.0 | 5.0 | 0.00 | 0.24 | 0.01 | 89 | 1033.0 |
| 20260901100348 | 54 | 44 | 0.0 | 0.0 | 0.00 | 0.24 | 0.01 | 89 | 1033.0 |
| 20260901094820 | 54 | 43 | 0.0 | 0.0 | 0.01 | 0.24 | 0.01 | 88 | 1033.2 |
| 20260901093314 | 54 | 43 | 0.0 | 0.0 | 0.01 | 0.24 | 0.01 | 87 | 1033.1 |
| 20260901091847 | 55 | 44 | 0.0 | 0.0 | 0.01 | 0.24 | 0.01 | 85 | 1033.2 |
| 20260901090321 | 55 | 43 | 0.0 | 0.0 | 0.01 | 0.24 | 0.01 | 83 | 1033.3 |
| 20260901084815 | 55 | 43 | 0.0 | 0.0 | 0.00 | 0.23 | 0.00 | 80 | 1033.3 |
| 20260901083330 | 55 | 44 | 0.0 | 0.0 | 0.00 | 0.23 | 0.00 | 79 | 1033.0 |
| 20260901081823 | 55 | 44 | 0.0 | 4.0 | 0.00 | 0.23 | 0.00 | 78 | 1032.7 |
| 20260901080337 | 55 | 25 | 3.0 | 10.0 | 0.00 | 0.23 | 0.00 | 77 | 1032.5 |
| 20260901074831 | 55 | 25 | 3.0 | 10.0 | 0.00 | 0.23 | 0.00 | 78 | 1032.4 |